Location: Eimen
(51.8766°N, 9.7806°E)
Time: 05:28:09
(UTC+00:00)

Cosmos 2221 Rocket - Pass Details

Date: 10 August 2024
Orbit: 618 x 644 km, 82.5° (Epoch: 09 September)

Event Time Altitude Azimuth Distance (km) Brightness Sun altitude
Rises 02:49:33 0° 351° (N) 2,969 7.5 -9.6°
Reaches altitude 10° 02:51:51 10° 356° (N) 2,056 6.8 -9.3°
Maximum altitude 02:56:22 58° 76° (ENE) 757 4.4 -8.8°
Drops below altitude 10° 03:00:50 10° 156° (SSE) 2,038 6.1 -8.2°
Sets 03:03:06 0° 160° (SSE) 2,940 6.8 -8.0°
